Orbital Elements at Epoch 2459000.5 (2020-May-31.0) TDB
Reference: JPL 12 (heliocentric ecliptic J2000)
Element | Value | Uncertainty (1-sigma) | Units |
e | .03150850015755151 | 7.465e-08 | |
a | 2.200267981378653 | 1.4939e-08 | au |
q | 2.130940837340729 | 1.6834e-07 | au |
i | 7.296921960863996 | 7.2113e-06 | deg |
node | 97.60154135055591 | 5.4346e-05 | deg |
peri | 64.79045128905383 | 0.00012521 | deg |
M | 356.9291390851812 | 0.00011062 | deg |
tp | 2459010.668793808766 (2020-Jun-10.16879381) | 0.00036634 | TDB |
period | 1192.097549417007 3.26 | 1.2141e-05 3.324e-08 | d yr |
n | .3019887090415186 | 3.0756e-09 | deg/d |
Q | 2.269595125416578 | 1.541e-08 | au |
|
| | Orbit Determination Parameters
Additional Information
|